Regional Weather Roundup
Issued by NWS New Orleans/Baton Rouge, LA

Home | Current Version | Previous Version | Graphics & Text | Print | Product List | Glossary On
Versions: 1 2 3 4 5 6 7 8 9 10 11 12 13 14 15 16 17 18 19 20 21 22 23 24 25 26 27 28 29 30 31 32 33 34 35 36 37 38 39 40 41 42 43 44 45 46 47 48 49 50
367
ASUS44 KLIX 220201
RWRLIX
NEW ORLEANS REGIONAL WEATHER ROUNDUP
NATIONAL WEATHER SERVICE NEW ORLEANS LA
900 PM CDT SUN SEP 21 2014

NOTE: "FAIR" INDICATES FEW OR NO CLOUDS BELOW 12,000 FEET WITH NO
      SIGNIFICANT WEATHER AND/OR OBSTRUCTIONS TO VISIBILITY.
      SKY/WX - SKY CONDITION AND SIGNIFICANT WEATHER.
      TMP - AIR TEMPERATURE.     DP    - DEWPOINT TEMPERATURE.
      RH  - RELATIVE HUMIDITY.   PRES  - PRESSURE.
      HI  - HEAT INDEX.          WCI   - WIND CHILL INDEX.

*  THESE STATIONS ARE NOT NWS OR FAA STATIONS AND ARE NOT UNDER
   NWS QUALITY CONTROL.

LAZ038-040-048-061>063-065>067-069-220300-
SOUTHEAST LOUISIANA

CITY           SKY/WX    TMP DP  RH WIND       PRES   REMARKS
N.O. AUDUBON   NOT AVBL
N.O. INTL ARPT PTCLDY    80  65  59 SE5       29.99R
N.O. LAKEFRONT CLEAR     81  69  67 SE7       30.00R
N.O. DOWNTOWN*   N/A     82  66  57 SE3       30.00S
SLIDELL        CLEAR     73  70  90 N5        30.00R
BATON ROUGE    CLEAR     74  69  85 CALM      30.00R
BOOTHVILLE     CLEAR     81  73  76 E7        30.00R
BELLE CHASSE   CLEAR     73  68  84 CALM      29.99R
BOGALUSA*        N/A     73  69  87 CALM      30.02R
GALLIANO*      NOT AVBL
NEW ROADS*       N/A     75  72  91 CALM      30.01R
GONZALES*        N/A     72  72 100 CALM      30.00R
HAMMOND*       NOT AVBL
HOUMA*         CLEAR     74  65  74 CALM      29.99R
PORT FOURCHON* CLEAR     81  73  78 E8        30.02R

$$

MSZ070-080>082-220300-
SOUTHERN MISSISSIPPI

CITY           SKY/WX    TMP DP  RH WIND       PRES   REMARKS
MCCOMB         CLEAR     73  66  78 CALM      30.01R
GULFPORT       CLEAR     76  71  85 CALM      30.00R
BILOXI         CLEAR     81  71  71 S3        30.01R
PASCAGOULA     CLEAR     71  69  93 CALM      30.01R

$$

COASTAL OBSERVATIONS
LAKE AND NEARSHORE STATIONS

STATION/POSITION TIME  TEMP    WIND        PRES    WAVE
                       AIR SEA DIR/SP/G            HT/PER
                 (UTC) (F)     (DEG/KT/KT) (MB)    (FT/S)
PASCAGOULA       0100   82     160/  3/  6 1015.6
WAVELAND YACHT   0100   82     150/  8/  9 1015.2
GRAND ISLE       0100   82 83   70/ 10/ 14 1016.2
SOUTHWEST PASS   0100   85 90   90/ 19/ 21 1015.6
NEW CANAL        0100   81 82   CALM  /  1 1015.9
SHELL BEACH      0100   81 79  100/  9/ 10 1015.6

OFFSHORE STATIONS

STATION/POSITION TIME  TEMP    WIND        PRES    WAVE
                       AIR SEA DIR/SP/G            HT/PER
                 (UTC) (F)     (DEG/KT/KT) (MB)    (FT/S)
64 S DAUPHIN ISL 0112   82 84   80/ 14/ 16 1016.1    3/ 6

$$




USA.gov is the U.S. government's official web portal to all federal, state and local government web resources and services.